Location: Nairn
(57.5833°N, 3.8667°W)
Time: 03:06:19
(UTC+00:00)

Vanguard 1 Rocket - Pass Details

Date: 28 November 2020
Orbit: 655 x 4221 km, 34.3° (Epoch: 20 January)

Event Time Altitude Azimuth Distance (km) Brightness Sun altitude
Exits shadow 02:04:36 29° 155° (SSE) 5,178 10.9 -47.6°
Drops below altitude 10° 02:16:51 10° 112° (ESE) 5,516 11.5 -46.4°
Sets 02:21:05 0° 101° (E) 6,053 12.0 -46.0°
